Location: St. Louis
(38.6270°N, 90.1994°W)
Time: 10:11:06
(UTC-06:00)

Vanguard 2 Rocket - Pass Details

Date: 02 December 2021
Orbit: 553 x 3325 km, 32.9° (Epoch: 23 January)

Event Time Altitude Azimuth Distance (km) Brightness Sun altitude
Rises 22:06:27 0° 273° (W) 4,486 10.8 -62.3°
Enters shadow 22:08:58 10° 269° (W) 3,810 10.3 -62.7°
Reaches altitude 10° 22:09:00 10° 269° (W) 3,800 - -62.7°
Maximum altitude 22:19:19 56° 195° (SSW) 2,619 - -64.4°
Drops below altitude 10° 22:36:24 10° 124° (ESE) 6,028 - -67.1°
Sets 22:41:42 0° 120° (ESE) 7,225 - -67.9°
